Location: Betz
(49.1556°N, 2.9558°E)
Time: 08:45:28
(UTC+00:00)

Cosmos 1707 - Pass Details

Date: 18 September 2019
Orbit: 517 x 530 km, 82.5° (Epoch: 14 October)

Event Time Altitude Azimuth Distance (km) Brightness Sun altitude
Rises 18:25:49 0° 359° (N) 2,682 6.5 -5.7°
Reaches altitude 10° 18:28:12 10° 11° (N) 1,788 5.4 -6.1°
Maximum altitude 18:31:38 28° 72° (ENE) 1,014 3.7 -6.7°
Drops below altitude 10° 18:35:02 10° 133° (SE) 1,777 4.9 -7.2°
Enters shadow 18:36:42 - 142° (SE) 2,393 5.6 -7.5°
